SILU-1 (SILKROAD 1) (42903 NORAD) Tracking and Keplerian Element Data

This shows tracking and keplerian element data for the satellite.

Feedback or suggestion? Click here.




ElementValue
Catalog42903
NameSILU-1 (SILKROAD 1)
Epoch Orbit9703
Epoch Day100.23204088
Epoch Year2019
RAAN296.2424
Inclination42.7609
Eccentricity0.0011156
Argument of Perigee293.9683
Mean Anonmoly66.9737
Mean Motion16.2995432
Decay Rate0.02436429
L11 42903U 17021F 19100.23204088 .02436429 89480-5 50117-3 0 9998
L22 42903 42.7609 296.2424 0011156 293.9683 66.9737 16.29954320 97039

Live tracking and technical data element details for SILU-1 (SILKROAD 1) (NORAD 42903). SILU-1 (SILKROAD 1) can be tracked NOW for your location showing map with azimuth and elevation plus other details from your city location.

Track the satellite on the map from your city or location and see movement details for azimuth, elevation, latitude, longitude, range, height, and movement on the map or in text.







IsCatalogInMostPopularTable: catalog: 42903, numindb: 357
Update: records affected: 1



GetName: 42903 SILU-1 (SILKROAD 1)

Hit Count: updated at: Mon, 14 Oct 2019 00:58:40 GMT